Location: Brompton
(51.4000°N, 0.5333°E)
Time: 18:45:18
(UTC+00:00)

Cosmos 1328 Rocket - Pass Details

Date: 11 May 2021
Orbit: 600 x 627 km, 82.5° (Epoch: 21 June)

Event Time Altitude Azimuth Distance (km) Brightness Sun altitude
Exits shadow 20:44:41 - 181° (S) 2,740 6.5 -9.1°
Reaches altitude 10° 20:46:31 10° 180° (S) 1,997 5.8 -9.3°
Maximum altitude 20:50:55 69° 97° (E) 671 3.6 -9.8°
Drops below altitude 10° 20:55:20 10° 15° (NNE) 2,001 6.6 -10.3°
Sets 20:57:34 0° 13° (NNE) 2,907 7.5 -10.5°
